Find Local Weather

World > North America > United States > California

Davis, California Regional Weather

Lat: 38.55N, Lon: 121.74W
Wx Zone: CAZ017
Feedback
Expires:201901191500;;597819
ASUS46 KSTO 191415
RWRCA 

NORTHERN AND CENTRAL CA REGIONAL WEATHER ROUNDUP
NATIONAL WEATHER SERVICE SACRAMENTO CA 
600 AM PST SAT JAN 19 2019

NOTE: FAIR INDICATES FEW OR NO CLOUDS BELOW 12,000 FEET WITH NO
SIGNIFICANT WEATHER AND/OR OBSTRUCTIONS TO VISIBILITY.


CAZ016>018-191500-
SOUTHERN SACRAMENTO VALLEY
  
CITY           SKY/WX    TMP DP  RH WIND       PRES   REMARKS
AUBURN         CLOUDY    52  48  87 SE5       30.37R                  
BEALE AFB      CLOUDY    55  50  85 E5        30.36S                  
LINCOLN        CLOUDY    52  50  93 E3        30.36S                  
MARYSVILLE     CLOUDY    53  51  93 SW5       30.38S                  
SAC INTL ARPT  CLOUDY    53  51  93 CALM      30.37R                  
MATHER AIRPORT CLOUDY    54  52  94 SE3       30.37S                  
DOWNTOWN SAC   N/A       53  MM  MM MISG
SAC EXEC ARPT  CLOUDY    52  51  97 CALM      30.38R                  
VACAVILLE      CLOUDY    52  52 100 CALM      30.38S                  
TRAVIS AFB     CLOUDY    52  52 100 CALM      30.38S                  
$$

SKY/WX - Weather  TMP - Temperature  DP - Dew Point  RH - Relative Humidity
WIND - Wind Direction/Speed PRES - Barometric Pressure